Time,TemperatureF,DewpointF,PressureIn,WindDirection,WindDirectionDegrees,WindSpeedMPH,WindSpeedGustMPH,Humidity,HourlyPrecipIn,Conditions,Clouds,dailyrainin,SoftwareType,DateUTC
2013-02-22 00:00:00,72.9,67.0,30.12,ESE,108,4.0,10.0,82,0.00,,,0.00,weatherlink.com 1.10,2013-02-22 05:00:00,
2013-02-22 00:15:00,72.8,67.0,30.12,ESE,116,3.0,8.0,83,0.00,,,0.00,weatherlink.com 1.10,2013-02-22 05:15:00,
2013-02-22 00:30:00,72.8,67.0,30.11,ESE,108,3.0,8.0,83,0.00,,,0.00,weatherlink.com 1.10,2013-02-22 05:30:00,
2013-02-22 00:45:00,72.8,67.0,30.11,ESE,115,4.0,7.0,83,0.00,,,0.00,weatherlink.com 1.10,2013-02-22 05:45:00,
2013-02-22 01:00:00,72.7,67.0,30.11,SE,133,2.0,7.0,83,0.00,,,0.00,weatherlink.com 1.10,2013-02-22 06:00:00,
2013-02-22 01:15:00,72.8,68.0,30.10,ESE,108,3.0,7.0,84,0.00,,,0.00,weatherlink.com 1.10,2013-02-22 06:15:00,
2013-02-22 01:30:00,72.9,67.0,30.10,SE,126,4.0,9.0,82,0.00,,,0.00,weatherlink.com 1.10,2013-02-22 06:30:00,
2013-02-22 01:45:00,73.0,67.0,30.10,ESE,112,3.0,9.0,82,0.00,,,0.00,weatherlink.com 1.10,2013-02-22 06:45:00,
2013-02-22 02:00:00,72.9,67.0,30.10,ESE,115,5.0,10.0,82,0.00,,,0.00,weatherlink.com 1.10,2013-02-22 07:00:00,
2013-02-22 02:15:00,72.8,67.0,30.09,ESE,108,8.0,8.0,83,0.00,,,0.00,weatherlink.com 1.10,2013-02-22 07:15:00,
2013-02-22 02:30:00,72.9,67.0,30.08,ESE,106,5.0,10.0,81,0.00,,,0.00,weatherlink.com 1.10,2013-02-22 07:30:00,
2013-02-22 02:45:00,72.8,67.0,30.08,ESE,111,4.0,10.0,81,0.00,,,0.00,weatherlink.com 1.10,2013-02-22 07:45:00,
2013-02-22 03:00:00,73.1,67.0,30.07,East,94,4.0,13.0,81,0.00,,,0.00,weatherlink.com 1.10,2013-02-22 08:00:00,
2013-02-22 03:15:00,72.9,67.0,30.08,ESE,110,9.0,10.0,81,0.00,,,0.00,weatherlink.com 1.10,2013-02-22 08:15:00,
2013-02-22 03:30:00,72.8,67.0,30.08,ESE,106,5.0,8.0,83,0.00,,,0.00,weatherlink.com 1.10,2013-02-22 08:30:00,
2013-02-22 03:45:00,72.9,68.0,30.08,ESE,119,6.0,9.0,83,0.00,,,0.00,weatherlink.com 1.10,2013-02-22 08:45:00,
2013-02-22 04:00:00,72.8,68.0,30.08,ESE,121,2.0,6.0,84,0.00,,,0.00,weatherlink.com 1.10,2013-02-22 09:00:00,
2013-02-22 04:15:00,72.8,68.0,30.09,East,101,4.0,7.0,85,0.00,,,0.00,weatherlink.com 1.10,2013-02-22 09:15:00,
2013-02-22 04:30:00,72.7,68.0,30.09,SE,125,2.0,6.0,85,0.00,,,0.00,weatherlink.com 1.10,2013-02-22 09:30:00,
2013-02-22 04:45:00,72.7,68.0,30.09,East,94,4.0,7.0,85,0.00,,,0.00,weatherlink.com 1.10,2013-02-22 09:45:00,
2013-02-22 05:00:00,72.8,68.0,30.09,SE,126,2.0,7.0,85,0.00,,,0.00,weatherlink.com 1.10,2013-02-22 10:00:00,
2013-02-22 05:16:00,72.8,68.0,30.09,ESE,113,6.0,8.0,85,0.00,,,0.00,weatherlink.com 1.10,2013-02-22 10:16:00,
2013-02-22 05:30:00,72.9,68.0,30.10,SE,133,4.0,7.0,85,0.00,,,0.00,weatherlink.com 1.10,2013-02-22 10:30:00,
2013-02-22 05:45:00,72.9,69.0,30.10,SE,128,3.0,6.0,86,0.00,,,0.00,weatherlink.com 1.10,2013-02-22 10:45:00,
2013-02-22 06:01:00,72.9,69.0,30.11,SE,127,4.0,6.0,86,0.00,,,0.00,weatherlink.com 1.10,2013-02-22 11:01:00,
2013-02-22 06:15:00,73.0,69.0,30.11,ESE,119,7.0,9.0,86,0.00,,,0.00,weatherlink.com 1.10,2013-02-22 11:15:00,
2013-02-22 06:30:00,73.2,69.0,30.11,ESE,109,3.0,6.0,87,0.00,,,0.00,weatherlink.com 1.10,2013-02-22 11:30:00,
2013-02-22 06:45:00,73.2,69.0,30.12,SE,134,3.0,8.0,86,0.00,,,0.00,weatherlink.com 1.10,2013-02-22 11:45:00,
2013-02-22 07:00:00,73.3,69.0,30.13,ESE,122,4.0,8.0,87,0.00,,,0.00,weatherlink.com 1.10,2013-02-22 12:00:00,
2013-02-22 07:16:00,73.4,69.0,30.13,SE,134,4.0,8.0,87,0.00,,,0.00,weatherlink.com 1.10,2013-02-22 12:16:00,
2013-02-22 07:30:00,74.5,70.0,30.13,ESE,122,5.0,9.0,86,0.00,,,0.00,weatherlink.com 1.10,2013-02-22 12:30:00,
2013-02-22 07:45:00,75.3,70.0,30.14,ESE,111,8.0,11.0,84,0.00,,,0.00,weatherlink.com 1.10,2013-02-22 12:45:00,
2013-02-22 08:01:00,75.7,71.0,30.14,ESE,104,6.0,9.0,84,0.00,,,0.00,weatherlink.com 1.10,2013-02-22 13:01:00,
2013-02-22 08:16:00,76.2,71.0,30.14,ESE,122,7.0,10.0,83,0.00,,,0.00,weatherlink.com 1.10,2013-02-22 13:16:00,
2013-02-22 08:31:00,76.6,71.0,30.14,SSE,155,8.0,11.0,83,0.00,,,0.00,weatherlink.com 1.10,2013-02-22 13:31:00,
2013-02-22 08:46:00,76.6,72.0,30.14,SE,127,5.0,11.0,84,0.00,,,0.00,weatherlink.com 1.10,2013-02-22 13:46:00,
2013-02-22 09:01:00,76.7,71.0,30.14,SE,126,6.0,13.0,83,0.00,,,0.00,weatherlink.com 1.10,2013-02-22 14:01:00,
2013-02-22 09:16:00,77.0,72.0,30.15,SE,126,7.0,13.0,83,0.00,,,0.00,weatherlink.com 1.10,2013-02-22 14:16:00,
2013-02-22 09:31:00,77.0,71.0,30.15,ESE,123,11.0,16.0,82,0.00,,,0.00,weatherlink.com 1.10,2013-02-22 14:31:00,
2013-02-22 09:46:00,77.2,71.0,30.15,ESE,116,10.0,15.0,82,0.00,,,0.00,weatherlink.com 1.10,2013-02-22 14:46:00,
2013-02-22 10:01:00,77.2,71.0,30.16,ESE,113,8.0,15.0,82,0.00,,,0.00,weatherlink.com 1.10,2013-02-22 15:01:00,
2013-02-22 10:16:00,77.5,72.0,30.16,SE,142,8.0,16.0,83,0.00,,,0.00,weatherlink.com 1.10,2013-02-22 15:16:00,
2013-02-22 10:31:00,77.8,72.0,30.15,SE,126,13.0,18.0,81,0.00,,,0.00,weatherlink.com 1.10,2013-02-22 15:31:00,
2013-02-22 10:46:00,77.3,71.0,30.16,SSE,151,9.0,17.0,82,0.00,,,0.00,weatherlink.com 1.10,2013-02-22 15:46:00,
2013-02-22 11:01:00,77.8,71.0,30.16,SSE,149,11.0,17.0,80,0.00,,,0.00,weatherlink.com 1.10,2013-02-22 16:01:00,
2013-02-22 11:16:00,77.3,71.0,30.16,ESE,112,10.0,17.0,81,0.00,,,0.00,weatherlink.com 1.10,2013-02-22 16:16:00,
2013-02-22 11:31:00,77.8,71.0,30.15,SSE,148,12.0,17.0,80,0.00,,,0.00,weatherlink.com 1.10,2013-02-22 16:31:00,
2013-02-22 11:46:00,77.7,71.0,30.15,SE,137,9.0,17.0,80,0.00,,,0.00,weatherlink.com 1.10,2013-02-22 16:46:00,
2013-02-22 12:01:00,77.2,71.0,30.14,SE,145,13.0,15.0,81,0.00,,,0.00,weatherlink.com 1.10,2013-02-22 17:01:00,
2013-02-22 12:16:00,77.3,71.0,30.14,SE,145,9.0,16.0,82,0.00,,,0.00,weatherlink.com 1.10,2013-02-22 17:16:00,
2013-02-22 12:31:00,77.9,72.0,30.13,SSE,163,6.0,16.0,81,0.00,,,0.00,weatherlink.com 1.10,2013-02-22 17:31:00,
2013-02-22 12:46:00,77.3,71.0,30.13,ESE,121,13.0,18.0,80,0.00,,,0.00,weatherlink.com 1.10,2013-02-22 17:46:00,
2013-02-22 13:02:00,76.7,71.0,30.12,ESE,122,12.0,16.0,82,0.00,,,0.00,weatherlink.com 1.10,2013-02-22 18:02:00,
2013-02-22 13:16:00,77.3,72.0,30.12,ESE,123,9.0,21.0,83,0.00,,,0.00,weatherlink.com 1.10,2013-02-22 18:16:00,
2013-02-22 13:31:00,77.4,71.0,30.11,SE,129,15.0,18.0,81,0.00,,,0.00,weatherlink.com 1.10,2013-02-22 18:31:00,
2013-02-22 13:46:00,77.2,71.0,30.11,SE,145,11.0,19.0,81,0.00,,,0.00,weatherlink.com 1.10,2013-02-22 18:46:00,
2013-02-22 14:01:00,77.0,72.0,30.10,SSE,155,9.0,17.0,83,0.00,,,0.00,weatherlink.com 1.10,2013-02-22 19:01:00,
2013-02-22 14:16:00,76.8,71.0,30.10,SSE,158,11.0,16.0,82,0.00,,,0.00,weatherlink.com 1.10,2013-02-22 19:16:00,
2013-02-22 14:31:00,76.6,72.0,30.10,SSE,150,13.0,18.0,84,0.00,,,0.00,weatherlink.com 1.10,2013-02-22 19:31:00,
2013-02-22 14:46:00,76.6,71.0,30.10,SE,128,11.0,18.0,82,0.00,,,0.00,weatherlink.com 1.10,2013-02-22 19:46:00,
2013-02-22 15:01:00,77.4,72.0,30.10,ESE,114,15.0,16.0,83,0.00,,,0.00,weatherlink.com 1.10,2013-02-22 20:01:00,
2013-02-22 15:16:00,77.4,72.0,30.09,SE,146,9.0,14.0,82,0.00,,,0.00,weatherlink.com 1.10,2013-02-22 20:16:00,
2013-02-22 15:31:00,76.8,72.0,30.09,SE,134,12.0,18.0,84,0.00,,,0.00,weatherlink.com 1.10,2013-02-22 20:31:00,
2013-02-22 15:46:00,76.8,71.0,30.09,ESE,108,12.0,18.0,83,0.00,,,0.00,weatherlink.com 1.10,2013-02-22 20:46:00,
2013-02-22 16:01:00,77.0,71.0,30.09,SE,143,5.0,16.0,81,0.00,,,0.00,weatherlink.com 1.10,2013-02-22 21:01:00,
2013-02-22 16:16:00,76.9,71.0,30.09,SE,125,12.0,17.0,82,0.00,,,0.00,weatherlink.com 1.10,2013-02-22 21:16:00,
2013-02-22 16:31:00,77.3,72.0,30.09,ESE,111,11.0,13.0,83,0.00,,,0.00,weatherlink.com 1.10,2013-02-22 21:31:00,
2013-02-22 16:46:00,76.5,71.0,30.09,SSE,160,6.0,16.0,83,0.00,,,0.00,weatherlink.com 1.10,2013-02-22 21:46:00,
2013-02-22 17:01:00,76.1,71.0,30.09,ESE,121,8.0,15.0,84,0.00,,,0.00,weatherlink.com 1.10,2013-02-22 22:01:00,
2013-02-22 17:16:00,75.8,71.0,30.09,SE,134,6.0,16.0,85,0.00,,,0.00,weatherlink.com 1.10,2013-02-22 22:16:00,
2013-02-22 17:32:00,75.6,71.0,30.09,East,101,10.0,16.0,85,0.00,,,0.00,weatherlink.com 1.10,2013-02-22 22:32:00,
2013-02-22 17:47:00,75.4,71.0,30.10,SE,134,9.0,18.0,85,0.00,,,0.00,weatherlink.com 1.10,2013-02-22 22:47:00,
2013-02-22 18:01:00,75.3,71.0,30.10,SE,146,12.0,15.0,86,0.00,,,0.00,weatherlink.com 1.10,2013-02-22 23:01:00,
2013-02-22 18:16:00,75.0,71.0,30.10,SE,135,11.0,15.0,87,0.00,,,0.00,weatherlink.com 1.10,2013-02-22 23:16:00,
2013-02-22 18:31:00,74.8,71.0,30.10,SE,132,8.0,15.0,87,0.00,,,0.00,weatherlink.com 1.10,2013-02-22 23:31:00,
2013-02-22 18:46:00,74.7,71.0,30.10,SE,139,7.0,14.0,87,0.00,,,0.00,weatherlink.com 1.10,2013-02-22 23:46:00,
2013-02-22 19:01:00,74.7,71.0,30.10,SE,126,12.0,16.0,87,0.00,,,0.00,weatherlink.com 1.10,2013-02-23 00:01:00,
2013-02-22 19:16:00,74.7,71.0,30.10,SSE,148,6.0,15.0,88,0.00,,,0.00,weatherlink.com 1.10,2013-02-23 00:16:00,
2013-02-22 19:32:00,74.7,71.0,30.10,SSE,158,7.0,19.0,87,0.00,,,0.00,weatherlink.com 1.10,2013-02-23 00:32:00,
2013-02-22 19:46:00,74.7,71.0,30.11,SE,139,10.0,15.0,87,0.00,,,0.00,weatherlink.com 1.10,2013-02-23 00:46:00,
2013-02-22 20:01:00,74.7,71.0,30.11,SE,129,10.0,16.0,87,0.00,,,0.00,weatherlink.com 1.10,2013-02-23 01:01:00,
2013-02-22 20:16:00,74.6,71.0,30.11,ESE,107,9.0,16.0,87,0.00,,,0.00,weatherlink.com 1.10,2013-02-23 01:16:00,
2013-02-22 20:31:00,74.6,71.0,30.11,ESE,115,7.0,14.0,87,0.00,,,0.00,weatherlink.com 1.10,2013-02-23 01:31:00,
2013-02-22 20:46:00,74.7,70.0,30.12,ESE,115,12.0,17.0,86,0.00,,,0.00,weatherlink.com 1.10,2013-02-23 01:46:00,
2013-02-22 21:02:00,74.8,70.0,30.12,SE,136,10.0,16.0,86,0.00,,,0.00,weatherlink.com 1.10,2013-02-23 02:02:00,
2013-02-22 21:16:00,74.9,71.0,30.12,ESE,117,8.0,15.0,86,0.00,,,0.00,weatherlink.com 1.10,2013-02-23 02:16:00,
2013-02-22 21:31:00,74.8,70.0,30.12,SE,126,8.0,14.0,86,0.00,,,0.00,weatherlink.com 1.10,2013-02-23 02:31:00,
2013-02-22 21:46:00,74.9,71.0,30.12,SE,136,7.0,13.0,87,0.00,,,0.00,weatherlink.com 1.10,2013-02-23 02:46:00,
2013-02-22 22:01:00,74.9,71.0,30.12,ESE,122,13.0,14.0,86,0.00,,,0.00,weatherlink.com 1.10,2013-02-23 03:01:00,
2013-02-22 22:16:00,75.0,71.0,30.12,ESE,113,6.0,17.0,86,0.00,,,0.00,weatherlink.com 1.10,2013-02-23 03:16:00,
2013-02-22 22:31:00,75.1,71.0,30.12,SE,140,10.0,16.0,86,0.00,,,0.00,weatherlink.com 1.10,2013-02-23 03:31:00,
2013-02-22 22:46:00,75.1,71.0,30.12,SE,131,4.0,15.0,86,0.00,,,0.00,weatherlink.com 1.10,2013-02-23 03:46:00,
2013-02-22 23:01:00,74.9,71.0,30.12,ESE,108,11.0,16.0,86,0.00,,,0.00,weatherlink.com 1.10,2013-02-23 04:01:00,
2013-02-22 23:16:00,74.8,70.0,30.11,SE,146,8.0,15.0,86,0.00,,,0.00,weatherlink.com 1.10,2013-02-23 04:16:00,
2013-02-22 23:31:00,74.9,70.0,30.11,SE,138,9.0,15.0,85,0.00,,,0.00,weatherlink.com 1.10,2013-02-23 04:31:00,
2013-02-22 23:46:00,74.8,71.0,30.11,ESE,118,11.0,16.0,87,0.00,,,0.00,weatherlink.com 1.10,2013-02-23 04:46:00,